| time (UTC) | temp F | wind direction | speed knots | gust knots | rain 1hr in | rain 24hr in | rain mn in | humidity % | barometer mb |
| 20260902194507 | 83 | 202 | 0.0 | 0.0 | 0.00 | 0.00 | 0.00 | 28 | 1018.2 |
| 20260902194007 | 84 | 202 | 0.0 | 0.0 | 0.00 | 0.00 | 0.00 | 28 | 1018.1 |
| 20260902193507 | 85 | 202 | 0.0 | 0.0 | 0.00 | 0.00 | 0.00 | 27 | 1018.0 |
| 20260902193007 | 86 | 202 | 0.0 | 0.0 | 0.00 | 0.00 | 0.00 | 26 | 1017.7 |
| 20260902191507 | 88 | 202 | 0.0 | 0.0 | 0.00 | 0.00 | 0.00 | 26 | 1017.7 |
| 20260902190507 | 89 | 202 | 0.0 | 0.0 | 0.00 | 0.00 | 0.00 | 26 | 1017.7 |
| 20260902190008 | 89 | 202 | 0.0 | 0.0 | 0.00 | 0.00 | 0.00 | 25 | 1017.7 |
| 20260902185507 | 90 | 202 | 0.0 | 0.0 | 0.00 | 0.00 | 0.00 | 25 | 1017.6 |
| 20260902185007 | 90 | 202 | 0.0 | 0.0 | 0.00 | 0.00 | 0.00 | 25 | 1017.7 |
| 20260902184507 | 91 | 202 | 0.9 | 2.6 | 0.00 | 0.00 | 0.00 | 24 | 1017.6 |
| 20260902184007 | 91 | 202 | 0.9 | 2.6 | 0.00 | 0.00 | 0.00 | 24 | 1017.5 |
| 20260902183507 | 91 | 203 | 1.7 | 2.6 | 0.00 | 0.00 | 0.00 | 24 | 1017.4 |
| 20260902182507 | 92 | 201 | 0.9 | 2.6 | 0.00 | 0.00 | 0.00 | 23 | 1017.3 |
| 20260902182007 | 93 | 199 | 2.6 | 4.3 | 0.00 | 0.00 | 0.00 | 23 | 1017.3 |
| 20260902181519 | 93 | 206 | 0.9 | 4.3 | 0.00 | 0.00 | 0.00 | 22 | 1017.3 |
| 20260902181009 | 93 | 239 | 0.0 | 1.7 | 0.00 | 0.00 | 0.00 | 23 | 1017.3 |
| 20260902180513 | 93 | 214 | 0.0 | 5.2 | 0.00 | 0.00 | 0.00 | 23 | 1017.3 |
| 20260902180008 | 93 | 202 | 2.6 | 4.3 | 0.00 | 0.00 | 0.00 | 22 | 1017.3 |
| 20260902175507 | 94 | 194 | 1.7 | 2.6 | 0.00 | 0.00 | 0.00 | 22 | 1017.3 |
| 20260902175006 | 94 | 231 | 0.0 | 2.6 | 0.00 | 0.00 | 0.00 | 22 | 1017.3 |
| 20260902174509 | 94 | 255 | 1.7 | 4.3 | 0.00 | 0.00 | 0.00 | 22 | 1017.3 |
| 20260902174007 | 94 | 202 | 2.6 | 5.2 | 0.00 | 0.00 | 0.00 | 22 | 1017.3 |
| 20260902173507 | 94 | 252 | 2.6 | 4.3 | 0.00 | 0.00 | 0.00 | 22 | 1017.3 |
| 20260902173007 | 94 | 256 | 3.5 | 5.2 | 0.00 | 0.00 | 0.00 | 22 | 1017.3 |
| 20260902172506 | 94 | 197 | 2.6 | 7.0 | 0.00 | 0.00 | 0.00 | 22 | 1017.2 |
| 20260902172007 | 94 | 246 | 1.7 | 6.1 | 0.00 | 0.00 | 0.00 | 22 | 1017.3 |
| 20260902171507 | 94 | 236 | 4.3 | 7.8 | 0.00 | 0.00 | 0.00 | 22 | 1017.3 |
| 20260902165506 | 94 | 215 | 2.6 | 6.1 | 0.00 | 0.00 | 0.00 | 22 | 1017.3 |
| 20260902165007 | 94 | 254 | 2.6 | 6.1 | 0.00 | 0.00 | 0.00 | 22 | 1017.2 |
| 20260902164507 | 94 | 201 | 4.3 | 7.0 | 0.00 | 0.00 | 0.00 | 22 | 1017.2 |
| 20260902164007 | 94 | 244 | 4.3 | 8.7 | 0.00 | 0.00 | 0.00 | 22 | 1017.2 |
| 20260902163507 | 93 | 250 | 5.2 | 10.4 | 0.00 | 0.00 | 0.00 | 22 | 1017.3 |
| 20260902163007 | 93 | 208 | 3.5 | 7.0 | 0.00 | 0.00 | 0.00 | 23 | 1017.2 |
| 20260902162507 | 93 | 205 | 3.5 | 7.8 | 0.00 | 0.00 | 0.00 | 23 | 1017.3 |
| 20260902162006 | 93 | 172 | 5.2 | 7.8 | 0.00 | 0.00 | 0.00 | 23 | 1017.3 |
| 20260902161507 | 93 | 188 | 3.5 | 7.8 | 0.00 | 0.00 | 0.00 | 23 | 1017.4 |
| 20260902155507 | 94 | 213 | 2.6 | 10.4 | 0.00 | 0.00 | 0.00 | 23 | 1017.6 |
| 20260902155007 | 93 | 219 | 2.6 | 10.4 | 0.00 | 0.00 | 0.00 | 23 | 1017.7 |
| 20260902154507 | 94 | 194 | 4.3 | 7.8 | 0.00 | 0.00 | 0.00 | 22 | 1017.7 |
| 20260902154007 | 94 | 240 | 4.3 | 7.8 | 0.00 | 0.00 | 0.00 | 22 | 1017.7 |
| 20260902153507 | 94 | 229 | 3.5 | 8.7 | 0.00 | 0.00 | 0.00 | 23 | 1017.8 |
| 20260902153007 | 94 | 216 | 3.5 | 6.1 | 0.00 | 0.00 | 0.00 | 22 | 1017.8 |
| 20260902152007 | 94 | 223 | 2.6 | 8.7 | 0.00 | 0.00 | 0.00 | 22 | 1017.8 |
| 20260902151006 | 93 | 290 | 3.5 | 7.8 | 0.00 | 0.00 | 0.00 | 23 | 1018.0 |
| 20260902145506 | 93 | 230 | 5.2 | 10.4 | 0.00 | 0.00 | 0.00 | 23 | 1018.1 |
| 20260902145006 | 93 | 339 | 2.6 | 7.8 | 0.00 | 0.00 | 0.00 | 23 | 1018.0 |
| 20260902144507 | 93 | 198 | 4.3 | 7.0 | 0.00 | 0.00 | 0.00 | 23 | 1018.1 |
| 20260902144007 | 93 | 212 | 3.5 | 7.8 | 0.00 | 0.00 | 0.00 | 23 | 1018.1 |
| 20260902143507 | 93 | 311 | 3.5 | 7.0 | 0.00 | 0.00 | 0.00 | 22 | 1018.2 |
| 20260902143007 | 93 | 288 | 1.7 | 7.0 | 0.00 | 0.00 | 0.00 | 21 | 1018.3 |
| 20260902142507 | 93 | 264 | 1.7 | 8.7 | 0.00 | 0.00 | 0.00 | 23 | 1018.4 |
| 20260902142007 | 93 | 211 | 4.3 | 10.4 | 0.00 | 0.00 | 0.00 | 23 | 1018.4 |
| 20260902141506 | 92 | 259 | 0.9 | 7.8 | 0.00 | 0.00 | 0.00 | 24 | 1018.4 |
| 20260902141007 | 91 | 3 | 1.7 | 7.0 | 0.00 | 0.00 | 0.00 | 25 | 1018.4 |
| 20260902140507 | 92 | 287 | 4.3 | 8.7 | 0.00 | 0.00 | 0.00 | 25 | 1018.5 |
| 20260902140007 | 92 | 236 | 6.1 | 10.4 | 0.00 | 0.00 | 0.00 | 25 | 1018.5 |
| 20260902135506 | 91 | 214 | 2.6 | 5.2 | 0.00 | 0.00 | 0.00 | 25 | 1018.6 |
| 20260902135006 | 91 | 181 | 3.5 | 8.7 | 0.00 | 0.00 | 0.00 | 25 | 1018.7 |
| 20260902134507 | 91 | 156 | 4.3 | 10.4 | 0.00 | 0.00 | 0.00 | 26 | 1018.7 |
| 20260902134006 | 91 | 214 | 2.6 | 10.4 | 0.00 | 0.00 | 0.00 | 26 | 1018.6 |
| 20260902133007 | 91 | 87 | 3.5 | 6.1 | 0.00 | 0.00 | 0.00 | 26 | 1018.7 |
| 20260902132506 | 91 | 195 | 3.5 | 7.8 | 0.00 | 0.00 | 0.00 | 26 | 1018.8 |
| 20260902132007 | 91 | 192 | 4.3 | 7.8 | 0.00 | 0.00 | 0.00 | 25 | 1018.7 |
| 20260902131006 | 91 | 246 | 2.6 | 5.2 | 0.00 | 0.00 | 0.00 | 25 | 1018.8 |
| 20260902130507 | 90 | 199 | 4.3 | 6.1 | 0.00 | 0.00 | 0.00 | 24 | 1018.8 |
| 20260902130007 | 90 | 230 | 1.7 | 6.1 | 0.00 | 0.00 | 0.00 | 25 | 1018.8 |
| 20260902125507 | 91 | 227 | 5.2 | 7.8 | 0.00 | 0.00 | 0.00 | 24 | 1018.9 |
| 20260902125007 | 90 | 221 | 2.6 | 7.0 | 0.00 | 0.00 | 0.00 | 24 | 1018.9 |
| 20260902124007 | 89 | 194 | 5.2 | 10.4 | 0.00 | 0.00 | 0.00 | 24 | 1019.0 |
| 20260902123507 | 89 | 193 | 4.3 | 7.0 | 0.00 | 0.00 | 0.00 | 24 | 1019.0 |
| 20260902123007 | 89 | 121 | 0.9 | 7.8 | 0.00 | 0.00 | 0.00 | 25 | 1019.0 |
| 20260902122006 | 89 | 176 | 3.5 | 6.1 | 0.00 | 0.00 | 0.00 | 27 | 1019.1 |
| 20260902121506 | 89 | 265 | 3.5 | 7.0 | 0.00 | 0.00 | 0.00 | 26 | 1019.2 |
| 20260902121007 | 88 | 201 | 2.6 | 7.0 | 0.00 | 0.00 | 0.00 | 28 | 1019.2 |
| 20260902120506 | 88 | 211 | 3.5 | 7.0 | 0.00 | 0.00 | 0.00 | 28 | 1019.3 |
| 20260902120007 | 88 | 52 | 1.7 | 2.6 | 0.00 | 0.00 | 0.00 | 29 | 1019.2 |
| 20260902115007 | 87 | 139 | 2.6 | 7.8 | 0.00 | 0.00 | 0.00 | 28 | 1019.3 |
| 20260902114506 | 87 | 170 | 4.3 | 7.0 | 0.00 | 0.00 | 0.00 | 30 | 1019.5 |
| 20260902114006 | 87 | 260 | 0.0 | 2.6 | 0.00 | 0.00 | 0.00 | 32 | 1019.5 |
| 20260902113007 | 86 | 228 | 2.6 | 5.2 | 0.00 | 0.00 | 0.00 | 33 | 1019.8 |
| 20260902112507 | 86 | 298 | 2.6 | 6.1 | 0.00 | 0.00 | 0.00 | 34 | 1019.8 |
| 20260902112006 | 85 | 214 | 2.6 | 6.1 | 0.00 | 0.00 | 0.00 | 35 | 1019.8 |
| 20260902111506 | 85 | 172 | 0.9 | 5.2 | 0.00 | 0.00 | 0.00 | 35 | 1019.9 |
| 20260902111006 | 85 | 183 | 1.7 | 4.3 | 0.00 | 0.00 | 0.00 | 33 | 1019.9 |
| 20260902110506 | 84 | 194 | 0.9 | 4.3 | 0.00 | 0.00 | 0.00 | 36 | 1020.0 |
| 20260902110008 | 84 | 194 | 0.9 | 2.6 | 0.00 | 0.00 | 0.00 | 37 | 1020.0 |
| 20260902105007 | 84 | 70 | 0.0 | 0.0 | 0.00 | 0.00 | 0.00 | 41 | 1020.0 |
| 20260902104006 | 83 | 227 | 1.7 | 2.6 | 0.00 | 0.00 | 0.00 | 42 | 1020.0 |
| 20260902103507 | 83 | 225 | 2.6 | 4.3 | 0.00 | 0.00 | 0.00 | 43 | 1020.0 |
| 20260902103007 | 82 | 292 | 1.7 | 2.6 | 0.00 | 0.00 | 0.00 | 44 | 1020.0 |
| 20260902102507 | 82 | 284 | 0.9 | 2.6 | 0.00 | 0.00 | 0.00 | 45 | 1020.0 |
| 20260902101506 | 81 | 188 | 1.7 | 4.3 | 0.00 | 0.00 | 0.00 | 49 | 1020.1 |
| 20260902100507 | 81 | 246 | 1.7 | 5.2 | 0.00 | 0.00 | 0.00 | 51 | 1020.2 |
| 20260902100008 | 81 | 220 | 1.7 | 6.1 | 0.00 | 0.00 | 0.00 | 51 | 1020.2 |
| 20260902095508 | 80 | 137 | 0.9 | 2.6 | 0.00 | 0.00 | 0.00 | 50 | 1020.2 |
| 20260902094508 | 79 | 103 | 0.9 | 4.3 | 0.00 | 0.00 | 0.00 | 52 | 1020.2 |
| 20260902094008 | 79 | 191 | 2.6 | 5.2 | 0.00 | 0.00 | 0.00 | 53 | 1020.2 |
| 20260902093508 | 78 | 193 | 1.7 | 4.3 | 0.00 | 0.00 | 0.00 | 55 | 1020.2 |
| 20260902093008 | 78 | 169 | 1.7 | 4.3 | 0.00 | 0.00 | 0.00 | 55 | 1020.1 |
| 20260902092509 | 78 | 162 | 2.6 | 5.2 | 0.00 | 0.00 | 0.00 | 56 | 1020.1 |
| 20260902092008 | 78 | 190 | 2.6 | 4.3 | 0.00 | 0.00 | 0.00 | 57 | 1020.1 |
| 20260902091008 | 77 | 189 | 1.7 | 5.2 | 0.00 | 0.00 | 0.00 | 56 | 1020.0 |
| 20260902090508 | 77 | 204 | 1.7 | 6.1 | 0.00 | 0.00 | 0.00 | 56 | 1020.0 |
| 20260902090008 | 76 | 177 | 1.7 | 6.1 | 0.00 | 0.00 | 0.00 | 56 | 1020.0 |
| 20260902085507 | 76 | 213 | 2.6 | 5.2 | 0.00 | 0.00 | 0.00 | 56 | 1020.0 |
| 20260902084008 | 76 | 188 | 0.9 | 2.6 | 0.00 | 0.00 | 0.00 | 53 | 1020.0 |
| 20260902083508 | 76 | 195 | 1.7 | 2.6 | 0.00 | 0.00 | 0.00 | 54 | 1019.9 |
| 20260902083009 | 76 | 182 | 0.0 | 0.0 | 0.00 | 0.00 | 0.00 | 54 | 1019.8 |
| 20260902082008 | 75 | 75 | 0.0 | 1.7 | 0.00 | 0.00 | 0.00 | 54 | 1019.8 |
| 20260902081508 | 74 | 75 | 0.9 | 2.6 | 0.00 | 0.00 | 0.00 | 54 | 1019.8 |
| 20260902081008 | 73 | 75 | 0.9 | 2.6 | 0.00 | 0.00 | 0.00 | 54 | 1019.7 |
| 20260902080508 | 73 | 31 | 1.7 | 2.6 | 0.00 | 0.00 | 0.00 | 55 | 1019.7 |
| 20260902080011 | 72 | 343 | 0.9 | 2.6 | 0.00 | 0.00 | 0.00 | 54 | 1019.6 |
| 20260902075507 | 72 | 5 | 1.7 | 2.6 | 0.00 | 0.00 | 0.00 | 54 | 1019.6 |
| 20260902075008 | 71 | 5 | 1.7 | 2.6 | 0.00 | 0.00 | 0.00 | 53 | 1019.4 |
| 20260902074508 | 71 | 20 | 0.9 | 1.7 | 0.00 | 0.00 | 0.00 | 53 | 1019.5 |
| 20260902073508 | 71 | 59 | 0.0 | 0.0 | 0.00 | 0.00 | 0.00 | 52 | 1019.5 |
| 20260902073008 | 71 | 59 | 0.0 | 0.0 | 0.00 | 0.00 | 0.00 | 52 | 1019.5 |
| 20260902071508 | 70 | 22 | 0.0 | 0.0 | 0.00 | 0.00 | 0.00 | 53 | 1019.5 |
| 20260902071008 | 69 | 22 | 0.0 | 0.0 | 0.00 | 0.00 | 0.00 | 54 | 1019.4 |
| 20260902070508 | 68 | 22 | 0.0 | 0.0 | 0.00 | 0.00 | 0.00 | 55 | 1019.2 |
| 20260902070009 | 67 | 22 | 0.0 | 0.0 | 0.00 | 0.00 | 0.00 | 56 | 1019.2 |
| 20260902065508 | 66 | 22 | 0.0 | 2.6 | 0.00 | 0.00 | 0.00 | 58 | 1019.1 |
| 20260902065008 | 66 | 22 | 1.7 | 2.6 | 0.00 | 0.00 | 0.00 | 58 | 1019.0 |
| 20260902064508 | 65 | 22 | 1.7 | 2.6 | 0.00 | 0.00 | 0.00 | 58 | 1019.0 |
| 20260902063508 | 64 | 22 | 0.0 | 0.0 | 0.00 | 0.00 | 0.00 | 59 | 1018.9 |
| 20260902063007 | 63 | 22 | 0.0 | 0.0 | 0.00 | 0.00 | 0.00 | 59 | 1019.0 |
| 20260902062508 | 62 | 22 | 0.0 | 0.0 | 0.00 | 0.00 | 0.00 | 61 | 1018.9 |
| 20260902062008 | 62 | 22 | 0.0 | 0.0 | 0.00 | 0.00 | 0.00 | 57 | 1018.9 |
| 20260902061509 | 63 | 22 | 0.0 | 0.0 | 0.00 | 0.00 | 0.00 | 56 | 1018.9 |
| 20260902061008 | 63 | 22 | 0.0 | 0.0 | 0.00 | 0.00 | 0.00 | 55 | 1018.9 |
| 20260902060508 | 64 | 22 | 0.0 | 0.0 | 0.00 | 0.00 | 0.00 | 54 | 1018.9 |
| 20260902060008 | 65 | 22 | 0.0 | 0.0 | 0.00 | 0.00 | 0.00 | 55 | 1018.9 |
| 20260902055508 | 65 | 22 | 0.0 | 0.0 | 0.00 | 0.00 | 0.00 | 55 | 1018.8 |
| 20260902055008 | 64 | 22 | 0.0 | 0.0 | 0.00 | 0.00 | 0.00 | 56 | 1018.8 |
| 20260902054007 | 64 | 22 | 0.0 | 0.0 | 0.00 | 0.00 | 0.00 | 55 | 1018.6 |
| 20260902053508 | 64 | 22 | 0.0 | 0.0 | 0.00 | 0.00 | 0.00 | 54 | 1018.4 |
| 20260902053008 | 65 | 22 | 0.0 | 0.0 | 0.00 | 0.00 | 0.00 | 54 | 1018.4 |
| 20260902052508 | 65 | 22 | 0.0 | 1.7 | 0.00 | 0.00 | 0.00 | 55 | 1018.4 |
| 20260902052008 | 65 | 17 | 2.6 | 2.6 | 0.00 | 0.00 | 0.00 | 54 | 1018.3 |
| 20260902051508 | 65 | 12 | 2.6 | 2.6 | 0.00 | 0.00 | 0.00 | 54 | 1018.3 |
| 20260902051008 | 65 | 24 | 2.6 | 2.6 | 0.00 | 0.00 | 0.00 | 54 | 1018.3 |
| 20260902050508 | 65 | 24 | 2.6 | 2.6 | 0.00 | 0.00 | 0.00 | 53 | 1018.2 |
| 20260902050009 | 65 | 24 | 0.9 | 1.7 | 0.00 | 0.00 | 0.00 | 52 | 1018.1 |
| 20260902045508 | 65 | 24 | 0.9 | 1.7 | 0.00 | 0.00 | 0.00 | 52 | 1018.1 |
| 20260902044508 | 65 | 24 | 1.7 | 2.6 | 0.00 | 0.00 | 0.00 | 53 | 1018.1 |
| 20260902044008 | 65 | 18 | 2.6 | 4.3 | 0.00 | 0.00 | 0.00 | 52 | 1017.9 |
| 20260902043508 | 65 | 10 | 3.5 | 5.2 | 0.00 | 0.00 | 0.00 | 51 | 1017.9 |
| 20260902043008 | 65 | 8 | 4.3 | 6.1 | 0.00 | 0.00 | 0.00 | 51 | 1017.9 |
| 20260902042507 | 65 | 2 | 2.6 | 4.3 | 0.00 | 0.00 | 0.00 | 50 | 1017.8 |
| 20260902041007 | 65 | 13 | 1.7 | 2.6 | 0.00 | 0.00 | 0.00 | 49 | 1017.8 |
| 20260902040507 | 65 | 13 | 1.7 | 2.6 | 0.00 | 0.00 | 0.00 | 49 | 1017.8 |
| 20260902040008 | 65 | 13 | 1.7 | 2.6 | 0.00 | 0.00 | 0.00 | 49 | 1017.9 |
| 20260902035507 | 65 | 11 | 2.6 | 4.3 | 0.00 | 0.00 | 0.00 | 47 | 1017.9 |
| 20260902035008 | 65 | 11 | 2.6 | 4.3 | 0.00 | 0.00 | 0.00 | 47 | 1018.0 |
| 20260902034507 | 65 | 11 | 2.6 | 4.3 | 0.00 | 0.00 | 0.00 | 46 | 1017.9 |
| 20260902034008 | 65 | 11 | 2.6 | 4.3 | 0.00 | 0.00 | 0.00 | 46 | 1017.9 |
| 20260902033508 | 65 | 11 | 1.7 | 4.3 | 0.00 | 0.00 | 0.00 | 44 | 1017.9 |
| 20260902033008 | 66 | 11 | 2.6 | 4.3 | 0.00 | 0.00 | 0.00 | 44 | 1017.9 |
| 20260902032508 | 66 | 11 | 2.6 | 2.6 | 0.00 | 0.00 | 0.00 | 44 | 1017.9 |
| 20260902032008 | 66 | 11 | 0.0 | 0.0 | 0.00 | 0.00 | 0.00 | 43 | 1018.0 |
| 20260902031007 | 67 | 11 | 0.0 | 0.0 | 0.00 | 0.00 | 0.00 | 42 | 1018.0 |
| 20260902030508 | 67 | 11 | 0.9 | 1.7 | 0.00 | 0.00 | 0.00 | 41 | 1017.9 |
| 20260902030008 | 68 | 11 | 0.9 | 1.7 | 0.00 | 0.00 | 0.00 | 41 | 1017.9 |
| 20260902025507 | 68 | 11 | 1.7 | 2.6 | 0.00 | 0.00 | 0.00 | 40 | 1017.9 |
| 20260902025008 | 68 | 11 | 2.6 | 2.6 | 0.00 | 0.00 | 0.00 | 41 | 1017.8 |
| 20260902024507 | 67 | 11 | 2.6 | 2.6 | 0.00 | 0.00 | 0.00 | 41 | 1017.7 |
| 20260902024008 | 67 | 11 | 2.6 | 2.6 | 0.00 | 0.00 | 0.00 | 41 | 1017.7 |
| 20260902023508 | 67 | 11 | 0.0 | 0.0 | 0.00 | 0.00 | 0.00 | 39 | 1017.7 |
| 20260902022507 | 67 | 11 | 0.0 | 0.0 | 0.00 | 0.00 | 0.00 | 38 | 1017.5 |
| 20260902021507 | 68 | 11 | 0.0 | 2.6 | 0.00 | 0.00 | 0.00 | 38 | 1017.6 |
| 20260902021008 | 68 | 11 | 0.9 | 2.6 | 0.00 | 0.00 | 0.00 | 37 | 1017.7 |
| 20260902020508 | 68 | 11 | 2.6 | 4.3 | 0.00 | 0.00 | 0.00 | 37 | 1017.5 |
| 20260902020008 | 67 | 19 | 2.6 | 4.3 | 0.00 | 0.00 | 0.00 | 37 | 1017.6 |
| 20260902015507 | 67 | 16 | 2.6 | 4.3 | 0.00 | 0.00 | 0.00 | 37 | 1017.6 |
| 20260902015008 | 67 | 20 | 1.7 | 4.3 | 0.00 | 0.00 | 0.00 | 37 | 1017.6 |
| 20260902014507 | 67 | 23 | 2.6 | 4.3 | 0.00 | 0.00 | 0.00 | 35 | 1017.5 |
| 20260902014008 | 68 | 12 | 1.7 | 2.6 | 0.00 | 0.00 | 0.00 | 36 | 1017.4 |
| 20260902013008 | 68 | 19 | 2.6 | 2.6 | 0.00 | 0.00 | 0.00 | 36 | 1017.5 |
| 20260902012508 | 68 | 24 | 2.6 | 4.3 | 0.00 | 0.00 | 0.00 | 35 | 1017.6 |
| 20260902011508 | 69 | 14 | 4.3 | 6.1 | 0.00 | 0.00 | 0.00 | 33 | 1017.5 |
| 20260902011007 | 69 | 25 | 2.6 | 4.3 | 0.00 | 0.00 | 0.00 | 33 | 1017.5 |
| 20260902010507 | 68 | 19 | 4.3 | 6.1 | 0.00 | 0.00 | 0.00 | 33 | 1017.4 |
| 20260902005519 | 69 | 15 | 1.7 | 2.6 | 0.00 | 0.00 | 0.00 | 32 | 1017.4 |
| 20260902005018 | 70 | 15 | 0.0 | 0.0 | 0.00 | 0.00 | 0.00 | 33 | 1017.4 |
| 20260902004508 | 70 | 15 | 0.0 | 0.0 | 0.00 | 0.00 | 0.00 | 32 | 1017.4 |
| 20260902003518 | 71 | 15 | 0.0 | 1.7 | 0.00 | 0.00 | 0.00 | 31 | 1017.4 |
| 20260902003008 | 72 | 15 | 0.9 | 2.6 | 0.00 | 0.00 | 0.00 | 31 | 1017.5 |
| 20260902002507 | 72 | 15 | 2.6 | 2.6 | 0.00 | 0.00 | 0.00 | 30 | 1017.5 |
| 20260902002018 | 72 | 15 | 1.7 | 2.6 | 0.00 | 0.00 | 0.00 | 30 | 1017.4 |
| 20260902001519 | 72 | 15 | 1.7 | 2.6 | 0.00 | 0.00 | 0.00 | 30 | 1017.5 |
| 20260902001018 | 71 | 7 | 2.6 | 2.6 | 0.00 | 0.00 | 0.00 | 31 | 1017.5 |
| 20260902000519 | 71 | 351 | 1.7 | 2.6 | 0.00 | 0.00 | 0.00 | 31 | 1017.6 |
| 20260902000019 | 71 | 351 | 1.7 | 2.6 | 0.00 | 0.00 | 0.00 | 31 | 1017.7 |
| 20260901235511 | 73 | 17 | 3.5 | 4.3 | 0.00 | 0.00 | 0.00 | 30 | 1017.7 |
| 20260901235018 | 73 | 19 | 3.5 | 4.3 | 0.00 | 0.00 | 0.00 | 30 | 1017.8 |
| 20260901234518 | 71 | 355 | 2.6 | 2.6 | 0.00 | 0.00 | 0.00 | 31 | 1017.9 |
| 20260901233519 | 70 | 18 | 4.3 | 5.2 | 0.00 | 0.00 | 0.00 | 32 | 1017.8 |
| 20260901232018 | 72 | 18 | 4.3 | 6.1 | 0.00 | 0.00 | 0.00 | 30 | 1017.8 |
| 20260901231508 | 73 | 28 | 0.0 | 0.0 | 0.00 | 0.00 | 0.00 | 30 | 1017.8 |
| 20260901231018 | 73 | 125 | 0.0 | 0.0 | 0.00 | 0.00 | 0.00 | 30 | 1017.8 |
| 20260901230518 | 74 | 125 | 0.0 | 2.6 | 0.00 | 0.00 | 0.00 | 30 | 1017.7 |
| 20260901230019 | 73 | 116 | 1.7 | 2.6 | 0.00 | 0.00 | 0.00 | 30 | 1017.7 |
| 20260901225518 | 73 | 84 | 1.7 | 2.6 | 0.00 | 0.00 | 0.00 | 31 | 1017.6 |
| 20260901225019 | 73 | 37 | 0.9 | 2.6 | 0.00 | 0.00 | 0.00 | 30 | 1017.3 |
| 20260901224520 | 73 | 37 | 0.0 | 0.0 | 0.00 | 0.00 | 0.00 | 30 | 1017.2 |
| 20260901224018 | 73 | 37 | 0.0 | 0.0 | 0.00 | 0.00 | 0.00 | 30 | 1017.1 |
| 20260901223522 | 73 | 37 | 0.0 | 0.9 | 0.00 | 0.00 | 0.00 | 30 | 1017.1 |
| 20260901223019 | 74 | 37 | 0.9 | 1.7 | 0.00 | 0.00 | 0.00 | 30 | 1017.0 |
| 20260901222518 | 74 | 37 | 1.7 | 2.6 | 0.00 | 0.00 | 0.00 | 29 | 1017.1 |
| 20260901222018 | 75 | 66 | 0.0 | 0.0 | 0.00 | 0.00 | 0.00 | 29 | 1017.0 |
| 20260901221519 | 75 | 66 | 0.9 | 1.7 | 0.00 | 0.00 | 0.00 | 28 | 1017.1 |
| 20260901221018 | 75 | 66 | 0.9 | 2.6 | 0.00 | 0.00 | 0.00 | 28 | 1017.0 |
| 20260901220019 | 75 | 101 | 1.7 | 4.3 | 0.00 | 0.00 | 0.00 | 29 | 1016.9 |
| 20260901215518 | 75 | 43 | 1.7 | 4.3 | 0.00 | 0.00 | 0.00 | 28 | 1016.9 |
| 20260901215018 | 76 | 306 | 0.0 | 1.7 | 0.00 | 0.00 | 0.00 | 27 | 1016.9 |
| 20260901214518 | 76 | 308 | 0.0 | 1.7 | 0.00 | 0.00 | 0.00 | 27 | 1016.8 |
| 20260901214018 | 77 | 311 | 1.7 | 5.2 | 0.00 | 0.00 | 0.00 | 26 | 1016.7 |
| 20260901213519 | 78 | 307 | 4.3 | 7.0 | 0.00 | 0.00 | 0.00 | 25 | 1016.8 |
| 20260901213007 | 79 | 313 | 5.2 | 7.0 | 0.00 | 0.00 | 0.00 | 25 | 1016.7 |
| 20260901212518 | 79 | 316 | 5.2 | 7.0 | 0.00 | 0.00 | 0.00 | 24 | 1016.6 |
| 20260901212018 | 79 | 316 | 5.2 | 7.0 | 0.00 | 0.00 | 0.00 | 25 | 1016.6 |
| 20260901211007 | 79 | 309 | 5.2 | 7.0 | 0.00 | 0.00 | 0.00 | 25 | 1016.6 |
| 20260901210518 | 79 | 307 | 4.3 | 6.1 | 0.00 | 0.00 | 0.00 | 24 | 1016.5 |
| 20260901210018 | 79 | 307 | 4.3 | 6.1 | 0.00 | 0.00 | 0.00 | 24 | 1016.5 |
| 20260901205518 | 79 | 310 | 4.3 | 7.0 | 0.00 | 0.00 | 0.00 | 24 | 1016.5 |
| 20260901205018 | 79 | 312 | 5.2 | 7.0 | 0.00 | 0.00 | 0.00 | 24 | 1016.4 |
| 20260901204518 | 78 | 310 | 4.3 | 7.0 | 0.00 | 0.00 | 0.00 | 25 | 1016.3 |
| 20260901204018 | 79 | 303 | 5.2 | 7.8 | 0.00 | 0.00 | 0.00 | 24 | 1016.3 |
| 20260901203518 | 79 | 310 | 6.1 | 7.8 | 0.00 | 0.00 | 0.00 | 24 | 1016.3 |
| 20260901203018 | 80 | 310 | 6.1 | 7.8 | 0.00 | 0.00 | 0.00 | 23 | 1016.0 |
| 20260901202518 | 81 | 309 | 6.1 | 7.8 | 0.00 | 0.00 | 0.00 | 23 | 1016.0 |
| 20260901202018 | 81 | 310 | 7.0 | 7.8 | 0.00 | 0.00 | 0.00 | 23 | 1015.9 |
| 20260901201518 | 81 | 314 | 7.0 | 8.7 | 0.00 | 0.00 | 0.00 | 23 | 1015.8 |
| 20260901201018 | 81 | 311 | 7.0 | 7.8 | 0.00 | 0.00 | 0.00 | 23 | 1015.6 |
| 20260901200519 | 81 | 311 | 7.0 | 8.7 | 0.00 | 0.00 | 0.00 | 23 | 1015.6 |
| 20260901200018 | 81 | 316 | 7.0 | 8.7 | 0.00 | 0.00 | 0.00 | 23 | 1015.6 |
| 20260901195017 | 82 | 315 | 6.1 | 7.0 | 0.00 | 0.00 | 0.00 | 22 | 1015.6 |